[[{"header":{"parameterUnit":"m.s-1","parameterCategory":1,"la1":30.2991,"la2":30.254,"lo1":-89.0895,"lo2":-89.0444,"dy":0.0017,"dx":0.0017,"nx":28,"ny":28,"refTime":"2024-09-28T09:00:00:Z","depth":0,"parameterNumber":2,"parameterNumberName":"U-component_of_WINDS"},"data":[0,0,0,0,0,0,0,0,0,0,0,0,0,0,0,0,0,0,0,0,0,0,0,0,0,0,0,0,0,0,0,0,0,0,0,0,0,0,0,0,0,0,0,0,0,0,0,0,0,0,0,0,0,0,0,0,0,0,2.7259,2.726,0,2.7289,2.729,2.729,2.7316,2.7317,2.7317,2.7317,2.7348,2.7349,2.7349,0,0,0,0,0,0,0,0,0,0,0,0,0,2.7226,2.7227,2.7259,2.726,2.726,2.7289,2.729,2.729,2.7316,2.7317,2.7317,2.7317,2.7348,2.7349,2.7349,0,0,0,0,0,0,0,0,0,0,0,0,0,2.7247,2.7227,2.7259,2.7277,2.7278,2.7289,2.729,2.729,2.7316,2.7317,2.7317,2.7317,2.7348,2.7349,2.7349,2.7345,0,0,2.7352,2.7352,0,0,0,0,0,0,0,0,2.7246,2.7248,2.7274,2.7275,2.7277,2.7299,2.7289,2.7309,2.7316,2.7302,2.7317,2.7318,2.7332,2.7334,2.7338,2.7347,2.7348,2.7352,2.7353,2.7353,2.7353,0,0,0,0,0,0,0,2.7244,2.7247,2.7271,2.7274,2.7276,2.7283,2.7287,2.7293,2.7314,2.7303,2.7305,2.7308,2.7333,2.7338,2.7339,2.7349,2.7352,2.7353,2.7353,2.7354,2.7357,2.7357,0,0,0,0,0,0,2.724,2.7246,2.727,2.7272,2.7262,2.7284,2.7288,2.7292,2.7314,2.7318,2.7308,2.7309,2.7336,2.7338,2.7341,2.7338,2.7353,2.7354,2.7354,2.7357,2.7357,2.7357,0,0,0,0,0,0,2.7239,2.7242,2.7269,2.7259,2.7263,2.7284,2.7289,2.7292,2.7297,2.7317,2.7321,2.7309,2.7336,2.7339,2.7344,2.7339,2.7354,2.7355,2.7358,2.7357,2.7357,2.7332,0,0,0,0,0,0,2.7238,2.7241,2.7239,2.7259,2.7264,2.7271,2.7288,2.7293,2.7298,2.7301,2.7319,2.7323,2.7337,2.7343,2.7345,2.7341,2.7355,2.7358,2.7358,2.7357,2.7333,2.733,2.7328,0,0,0,0,0,2.7237,2.7231,2.7239,2.7242,2.7262,2.7271,2.7274,2.729,2.7298,2.7296,2.731,2.7322,2.734,2.7343,2.7346,2.7342,2.7359,2.7358,2.7357,2.7334,2.7331,2.7328,0,0,0,0,0,0,2.721,2.7234,2.7243,2.7243,2.7255,2.7275,2.7274,2.7286,2.7295,2.7297,2.7317,2.7321,2.7324,2.7334,2.7337,2.734,2.7351,2.7351,2.7333,2.733,2.7328,2.7325,2.7356,0,0,0,0,0,2.7204,2.7209,2.723,2.7228,2.7234,2.7253,2.7257,2.7269,2.7282,2.7287,2.7301,2.7313,2.7322,2.7327,2.7335,2.7335,2.734,2.7334,2.7332,2.7329,2.7328,2.733,2.7328,2.7354,2.7354,2.7354,0,0,2.7191,2.7205,2.7207,2.7223,2.7233,2.7239,2.7257,2.7261,2.7266,2.7288,2.7293,2.7304,2.7319,2.7322,2.7324,2.733,2.7323,2.7328,2.7326,2.7326,2.7329,2.7327,2.7324,2.7353,2.7353,2.7353,0,0,2.7171,2.7182,2.7182,2.7193,2.7209,2.7222,2.7222,2.7241,2.7249,2.7255,2.7272,2.7279,2.7292,2.7303,2.731,2.7297,2.7309,2.73,2.7286,2.7287,2.7285,2.7284,2.7279,2.7277,2.7299,2.7299,2.7299,0,2.7154,2.7162,2.7181,2.7185,2.7192,2.7213,2.7214,2.7223,2.7241,2.7246,2.7253,2.7272,2.7284,2.7289,2.7286,2.7292,2.7293,2.7297,2.7284,2.7283,2.7281,2.7277,2.7275,2.7297,2.7298,2.7298,2.7298,0,2.714,2.7146,2.7144,2.7161,2.7168,2.7171,2.719,2.7196,2.7208,2.7221,2.7227,2.7243,2.7255,2.7258,2.727,2.7266,2.727,2.728,2.7292,2.7277,2.7274,2.7272,2.7296,2.7296,2.7296,2.7297,0,0,2.7101,2.713,2.7129,2.7138,2.7158,2.7163,2.7168,2.718,2.7184,2.7197,2.7201,2.7214,2.7224,2.7233,2.7246,2.7248,2.7237,2.7258,2.7259,2.7253,2.7235,2.7226,2.7224,2.7246,2.7246,2.7245,2.7233,0,2.7084,2.7091,2.711,2.7112,2.7118,2.714,2.7144,2.7157,2.717,2.7178,2.7193,2.7201,2.7214,2.722,2.7222,2.7237,2.7233,2.7239,2.725,2.725,2.7244,2.7222,2.7212,2.7199,2.7232,2.7232,2.7232,0,2.7063,2.7075,2.7078,2.71,2.7103,2.7106,2.712,2.7127,2.7144,2.7153,2.7164,2.7179,2.7186,2.7198,2.7208,2.7211,2.7218,2.7226,2.7226,2.7227,2.7239,2.7221,2.7196,2.7194,2.723,2.723,2.723,0,2.7034,2.7051,2.7055,2.7062,2.7087,2.7089,2.71,2.7117,2.7124,2.7137,2.7142,2.7156,2.7163,2.7174,2.7193,2.72,2.7201,2.7214,2.7209,2.7209,2.7207,2.7207,2.7182,2.7213,2.7213,2.7213,2.7213,0,2.7012,2.7012,2.7042,2.7044,2.7047,2.7069,2.7071,2.7084,2.71,2.7106,2.7126,2.7132,2.7157,2.7166,2.7182,2.7188,2.7191,2.72,2.7203,2.7197,2.7196,2.72,2.7201,2.7213,2.7213,2.7213,2.7213,0,2.6978,2.6998,2.7004,2.7028,2.7035,2.7035,2.7056,2.706,2.7076,2.7083,2.7086,2.711,2.7122,2.7143,2.7161,2.7171,2.7174,2.7182,2.7168,2.7171,2.7164,2.7164,2.714,2.7138,2.7171,2.7171,2.7171,0,2.6961,2.6963,2.6988,2.6993,2.7003,2.7012,2.702,2.7043,2.705,2.7071,2.7072,2.7086,2.7098,2.7116,2.7135,2.715,2.7157,2.7148,2.7159,2.7153,2.7156,2.7155,2.7156,2.7144,2.7144,2.7143,2.7143,0,2.693,2.694,2.6951,2.6965,2.6974,2.6986,2.7,2.7004,2.703,2.7038,2.705,2.7059,2.7078,2.7092,2.7109,2.7121,2.7137,2.714,2.7139,2.7132,2.7124,2.7128,2.716,2.714,2.714,2.714,2.7141,2.7141,2.6904,2.6907,2.6925,2.6936,2.6949,2.6962,2.6967,2.6984,2.6995,2.7011,2.7025,2.7037,2.7056,2.7081,2.7093,2.7103,2.711,2.7109,2.7109,2.7108,2.7105,2.7124,2.7106,2.7106,2.7107,2.7107,2.7107,0,2.6873,2.6886,2.6897,2.6916,2.6925,2.694,2.6956,2.6963,2.6973,2.699,2.7001,2.7017,2.7031,2.7052,2.7068,2.7072,2.708,2.7076,2.7075,2.7078,2.7098,2.7097,2.7069,2.7069,2.7069,2.7069,2.7069,2.7069,2.6858,2.6863,2.6876,2.6889,2.6903,2.6915,2.6923,2.6935,2.6949,2.6965,2.6976,2.6991,2.701,2.7028,2.7042,2.7048,2.7053,2.7046,2.7054,2.7073,2.7076,2.7079,2.7078,2.7047,2.7047,2.7033,2.7033,2.7033]},{"header":{"parameterUnit":"m.s-1","parameterCategory":1,"la1":30.2991,"la2":30.254,"lo1":-89.0895,"lo2":-89.0444,"dy":0.0017,"dx":0.0017,"nx":28,"ny":28,"refTime":"2024-09-28T09:00:00:Z","depth":0,"parameterNumber":3,"parameterNumberName":"V-component_of_WINDS"},"data":[0,0,0,0,0,0,0,0,0,0,0,0,0,0,0,0,0,0,0,0,0,0,0,0,0,0,0,0,0,0,0,0,0,0,0,0,0,0,0,0,0,0,0,0,0,0,0,0,0,0,0,0,0,0,0,0,0,0,2.4698,2.47,0,2.4843,2.4845,2.4846,2.4914,2.4914,2.4914,2.4914,2.5059,2.5062,2.5066,0,0,0,0,0,0,0,0,0,0,0,0,0,2.4476,2.448,2.4698,2.47,2.4702,2.4843,2.4845,2.4847,2.4914,2.4914,2.4914,2.4914,2.5057,2.5062,2.5067,0,0,0,0,0,0,0,0,0,0,0,0,0,2.4592,2.4481,2.4698,2.4753,2.4759,2.4842,2.4845,2.4847,2.4914,2.4914,2.4914,2.4914,2.5056,2.5062,2.5067,2.5106,0,0,2.5085,2.5088,0,0,0,0,0,0,0,0,2.4585,2.46,2.4743,2.4749,2.4756,2.4861,2.482,2.4934,2.4914,2.4855,2.4914,2.4914,2.4993,2.5004,2.5031,2.5113,2.5119,2.5086,2.509,2.5092,2.5094,0,0,0,0,0,0,0,2.4577,2.4594,2.4755,2.4745,2.4753,2.4769,2.4785,2.4842,2.4923,2.486,2.4866,2.4882,2.4996,2.5025,2.5035,2.5121,2.5086,2.5091,2.5095,2.5097,2.5242,2.5243,0,0,0,0,0,0,2.4561,2.4587,2.4751,2.476,2.4669,2.4773,2.4791,2.4827,2.4922,2.4937,2.4882,2.4885,2.5015,2.5028,2.504,2.5093,2.5092,2.5098,2.5101,2.5242,2.5242,2.5243,0,0,0,0,0,0,2.4556,2.4575,2.4745,2.4675,2.4698,2.4777,2.4817,2.483,2.4859,2.4939,2.4953,2.4897,2.5016,2.5032,2.509,2.5098,2.51,2.5106,2.5242,2.5242,2.5243,2.5197,0,0,0,0,0,0,2.4549,2.4573,2.4589,2.4675,2.4701,2.4793,2.4817,2.4833,2.487,2.4874,2.4957,2.497,2.5017,2.508,2.5095,2.5107,2.511,2.5241,2.5242,2.5242,2.5198,2.5196,2.5194,0,0,0,0,0,2.4541,2.457,2.459,2.4609,2.4724,2.4793,2.4808,2.4863,2.487,2.4887,2.4938,2.4967,2.5095,2.5086,2.5103,2.5116,2.5241,2.5242,2.5242,2.5199,2.5196,2.5194,0,0,0,0,0,0,2.4482,2.4582,2.4605,2.4663,2.4719,2.4805,2.4828,2.4858,2.4913,2.4915,2.4978,2.4996,2.5048,2.5088,2.5076,2.5159,2.517,2.5175,2.5131,2.5129,2.5127,2.5117,2.5115,0,0,0,0,0,2.4476,2.4525,2.4609,2.4652,2.4679,2.4748,2.478,2.4817,2.4878,2.4902,2.4957,2.5014,2.5066,2.51,2.5153,2.5203,2.5222,2.5221,2.5219,2.5217,2.522,2.5249,2.525,2.5245,2.5245,2.5245,0,0,2.4463,2.4524,2.4551,2.4642,2.469,2.4738,2.4768,2.4818,2.4854,2.4909,2.4968,2.501,2.5077,2.5131,2.5158,2.5166,2.5225,2.5218,2.5215,2.522,2.525,2.525,2.5251,2.5246,2.5246,2.5246,0,0,2.4466,2.4517,2.4558,2.4606,2.4678,2.4724,2.4734,2.4815,2.4845,2.4905,2.4947,2.499,2.508,2.5126,2.5161,2.518,2.5209,2.5195,2.5185,2.5213,2.5213,2.5214,2.5221,2.5222,2.5198,2.5198,2.5198,0,2.4441,2.4518,2.4575,2.4624,2.4662,2.4714,2.4756,2.4798,2.4884,2.4909,2.4916,2.503,2.5079,2.5145,2.5149,2.5176,2.5188,2.5187,2.5209,2.521,2.5211,2.5218,2.5221,2.5196,2.5196,2.5196,2.5196,0,2.4483,2.4535,2.456,2.4642,2.4683,2.4727,2.4791,2.4825,2.4857,2.4902,2.4961,2.5022,2.5088,2.5106,2.5138,2.5176,2.5179,2.5196,2.521,2.5209,2.5216,2.522,2.5193,2.5193,2.5194,2.5195,0,0,2.4454,2.4568,2.4576,2.4614,2.4697,2.4738,2.4784,2.485,2.4878,2.4934,2.4974,2.5048,2.5066,2.5105,2.5143,2.5167,2.5178,2.5182,2.5185,2.518,2.5224,2.5211,2.5213,2.5198,2.5199,2.5199,2.5218,0,2.4469,2.4556,2.4608,2.4673,2.4722,2.4771,2.4812,2.4866,2.4908,2.4955,2.5001,2.5053,2.5071,2.5095,2.5122,2.5171,2.5188,2.5171,2.5235,2.5237,2.5218,2.5217,2.5203,2.5219,2.5222,2.5222,2.5223,0,2.4498,2.4555,2.4624,2.4702,2.4725,2.476,2.4824,2.4868,2.493,2.4959,2.5003,2.5041,2.5091,2.5099,2.5167,2.5154,2.5183,2.5212,2.5213,2.5222,2.523,2.5226,2.5225,2.5227,2.5228,2.5228,2.5227,0,2.447,2.4563,2.4618,2.4648,2.4741,2.4764,2.4803,2.4866,2.4902,2.4957,2.4981,2.5041,2.5074,2.5118,2.5171,2.5172,2.5234,2.5247,2.5259,2.5258,2.5271,2.5269,2.5275,2.5288,2.5288,2.5288,2.5288,0,2.4481,2.4522,2.4606,2.464,2.4687,2.4746,2.479,2.4833,2.4888,2.493,2.4976,2.5013,2.508,2.5126,2.5167,2.5217,2.5231,2.5256,2.5266,2.5252,2.5249,2.5273,2.5273,2.5288,2.5288,2.5288,2.5288,0,2.4459,2.4517,2.4579,2.4661,2.4683,2.4713,2.4783,2.4817,2.4861,2.4913,2.4928,2.4998,2.5054,2.511,2.5185,2.5213,2.5262,2.5276,2.5242,2.5248,2.5257,2.5256,2.5279,2.5285,2.5292,2.5292,2.5292,0,2.4462,2.4495,2.4581,2.4613,2.4651,2.4701,2.4739,2.4797,2.4834,2.4907,2.4932,2.4991,2.5042,2.5129,2.5185,2.5243,2.5259,2.5263,2.5268,2.5253,2.526,2.5258,2.5261,2.5261,2.5261,2.526,2.526,0,2.4463,2.449,2.4543,2.4605,2.4648,2.47,2.4753,2.4776,2.4845,2.4883,2.4942,2.4981,2.5058,2.5117,2.5181,2.522,2.5251,2.5258,2.5264,2.5251,2.5229,2.5241,2.5237,2.5258,2.5258,2.5258,2.5258,2.5258,2.4455,2.4486,2.4551,2.4608,2.4654,2.4703,2.4738,2.4787,2.4837,2.4906,2.4937,2.4995,2.5056,2.5146,2.5184,2.523,2.5238,2.5247,2.5249,2.525,2.5247,2.5221,2.5241,2.5241,2.5242,2.5242,2.5242,0,2.4458,2.4502,2.4554,2.4627,2.4671,2.4698,2.4758,2.4793,2.4844,2.4899,2.4948,2.5015,2.5071,2.5132,2.5192,2.5217,2.5232,2.523,2.5229,2.5238,2.5236,2.5225,2.5216,2.5216,2.5216,2.5216,2.5216,2.5216,2.4465,2.452,2.4555,2.4632,2.4676,2.4735,2.4767,2.4811,2.4855,2.4928,2.4976,2.5015,2.5072,2.5136,2.5189,2.5205,2.5225,2.5219,2.5239,2.5236,2.5238,2.524,2.523,2.5222,2.5222,2.5237,2.5237,2.5237]}]]